Location: Vancouver
(49.2500°N, 123.1330°W)
Time: 02:28:49
(UTC-07:00)

deb Explorer IX - Visible Passes

Search period start: 15 September 2014 00:00
Search period end: 25 September 2014 00:00
Orbit: 558 x 1217 km, 38.8° (Epoch: 15 September)

Date Brightness Start Highest point End Pass type
(mag) Time Alt. Az. Time Alt. Az. Time Alt. Az.
15 Sep ? 20:42:49 10° SW 20:49:04 29° SSE 20:52:58 20° ESE visible
15 Sep ? 22:30:02 10° WSW 22:35:39 36° SSW 22:35:39 36° SSW visible
16 Sep ? 20:39:52 10° SW 20:46:15 32° SSE 20:50:28 20° ESE visible
16 Sep ? 22:27:18 10° WSW 22:33:09 37° SSW 22:33:09 37° SSW visible
17 Sep ? 20:37:00 10° SW 20:43:26 34° SSE 20:47:54 20° ESE visible
17 Sep ? 22:24:36 10° WSW 22:30:34 37° SSW 22:30:34 37° SSW visible
18 Sep ? 20:34:09 10° SW 20:40:37 36° S 20:45:16 19° ESE visible
18 Sep ? 22:21:54 10° WSW 22:27:56 36° SSW 22:27:56 36° SSW visible
19 Sep ? 20:31:21 10° WSW 20:37:48 37° S 20:42:36 19° ESE visible
19 Sep ? 22:19:14 10° WSW 22:25:15 34° SSW 22:25:15 34° SSW visible
20 Sep ? 20:28:35 10° WSW 20:34:59 37° S 20:39:54 19° ESE visible
20 Sep ? 22:16:34 10° WSW 22:22:33 32° SSW 22:22:33 32° SSW visible
21 Sep ? 20:25:49 10° WSW 20:32:09 37° S 20:37:11 18° SE visible
21 Sep ? 22:13:57 10° WSW 22:19:51 29° SSW 22:19:51 29° SSW visible
22 Sep ? 20:23:05 10° WSW 20:29:19 36° S 20:34:28 17° SE visible
22 Sep ? 22:11:22 10° WSW 22:17:08 26° SSW 22:17:08 26° SSW visible
23 Sep ? 20:20:22 10° WSW 20:26:28 35° S 20:31:46 16° SE visible
23 Sep ? 22:08:50 10° WSW 22:14:21 23° SSW 22:14:26 23° SSW visible
24 Sep ? 20:17:41 10° WSW 20:23:35 33° S 20:29:05 14° SE visible
24 Sep ? 22:06:24 10° WSW 22:11:24 20° SSW 22:11:45 20° SSW visible
